User: anonymous   Login
Location: Caltech
(34.1382°N, 118.1253°W)
Time: 18:47:26
(UTC-07:00)
Language:

NOSS 3-2 (A) - Orbit

View from above orbital plane
View from above orbital plane
View from above satellite
View from above satellite

Ground track
Ground track

The orbit data is extracted from the following two-line orbital elements,

1 28095U 03054A   15064.74181252 0.00000100  00000-0  15336-3 0    07
2 28095  63.4290 281.4833 0232000 358.0844   1.9156 13.41309129    03
Epoch (UTC): 05 March 2015 17:48:12
Eccentricity: 0.0232000
inclination: 63.4290°
perigee height: 931 km
apogee height: 1278 km
right ascension of ascending node: 281.4833°
argument of perigee: 358.0844°
revolutions per day: 13.41309129
mean anomaly at epoch: 1.9156°
orbit number at epoch: 0

The dashed part of the orbit path shows where the satellite is in the earth's shadow,  

DLR